KII946 KMEM-KMSY

Flight info

Callsign KII946
Flight time 0h 50m
Altitude 38000
Route PIEPE6 IBUFY MCB TRSSH1
Aircraft B738/M-SDE2E3FGHIRWXY/LB1

Departure

Time 2026-05-05 14:25
Airport Memphis International Airport (KMEM)

Arrival

Time 2026-05-05 15:15
Airport Louis Armstrong New Orleans International Airport (KMSY)
Time Latitude Longitude Altitude Speed Heading
2026-05-05 14:06 35.03356 -89.96593 286 ft 0 kts 91°
2026-05-05 14:16 35.03356 -89.96597 304 ft 3 kts 94°
2026-05-05 14:16 35.03354 -89.96597 304 ft 3 kts 48°
2026-05-05 14:16 35.03334 -89.96616 304 ft 4 kts
2026-05-05 14:16 35.03308 -89.96617 303 ft 4 kts
2026-05-05 14:17 35.03292 -89.96614 302 ft 1 kts 333°
2026-05-05 14:17 35.03289 -89.96613 302 ft 0 kts 333°
2026-05-05 14:20 35.03290 -89.96613 302 ft 1 kts 333°
2026-05-05 14:21 35.03329 -89.96637 305 ft 13 kts 333°
2026-05-05 14:21 35.03411 -89.96739 304 ft 20 kts 268°
2026-05-05 14:21 35.03451 -89.96856 308 ft 14 kts 354°
2026-05-05 14:21 35.03548 -89.96849 307 ft 14 kts
2026-05-05 14:22 35.03671 -89.96850 308 ft 22 kts 359°
2026-05-05 14:22 35.03801 -89.96924 309 ft 21 kts 295°
2026-05-05 14:22 35.03834 -89.97080 309 ft 19 kts 329°
2026-05-05 14:22 35.03975 -89.97092 308 ft 22 kts 359°
2026-05-05 14:23 35.04125 -89.97096 310 ft 21 kts 358°
2026-05-05 14:23 35.04277 -89.97099 310 ft 23 kts
2026-05-05 14:23 35.04420 -89.97075 313 ft 17 kts 347°
2026-05-05 14:23 35.04427 -89.97184 316 ft 17 kts 217°
2026-05-05 14:24 35.04327 -89.97253 313 ft 16 kts 207°
2026-05-05 14:24 35.04208 -89.97281 314 ft 35 kts 179°
2026-05-05 14:24 35.03599 -89.97270 309 ft 137 kts 179°
2026-05-05 14:24 35.02456 -89.97262 941 ft 179 kts 180°
2026-05-05 14:25 35.01163 -89.97303 2160 ft 180 kts 187°
2026-05-05 14:25 34.99851 -89.97395 3002 ft 202 kts 189°
2026-05-05 14:25 34.98388 -89.97487 3453 ft 217 kts 186°
2026-05-05 14:25 34.96832 -89.97467 3853 ft 236 kts 184°
2026-05-05 14:26 34.95159 -89.97422 4570 ft 242 kts 183°
2026-05-05 14:26 34.93464 -89.97376 5360 ft 246 kts 183°
2026-05-05 14:26 34.91712 -89.97334 6034 ft 256 kts 183°
2026-05-05 14:26 34.89937 -89.97294 6914 ft 254 kts 183°
2026-05-05 14:27 34.88155 -89.97255 7687 ft 260 kts 184°
2026-05-05 14:27 34.86335 -89.97330 8461 ft 263 kts 189°
2026-05-05 14:27 34.84520 -89.97518 9289 ft 268 kts 189°
2026-05-05 14:27 34.82619 -89.97730 10135 ft 273 kts 190°
2026-05-05 14:28 34.80668 -89.97947 10517 ft 294 kts 190°
2026-05-05 14:28 34.78538 -89.98177 10714 ft 320 kts 189°
2026-05-05 14:28 34.76246 -89.98413 10977 ft 340 kts 189°
2026-05-05 14:28 34.73857 -89.98651 11572 ft 347 kts 189°
2026-05-05 14:29 34.71430 -89.98890 12258 ft 353 kts 189°
2026-05-05 14:29 34.69030 -89.99290 12946 ft 353 kts 199°
2026-05-05 14:29 34.66715 -90.00261 13762 ft 353 kts 205°
2026-05-05 14:29 34.64412 -90.01337 14475 ft 357 kts 205°
2026-05-05 14:30 34.62075 -90.02429 15132 ft 364 kts 206°
2026-05-05 14:30 34.59690 -90.03523 15814 ft 369 kts 206°
2026-05-05 14:30 34.57262 -90.04618 16494 ft 375 kts 206°
2026-05-05 14:30 34.54795 -90.05718 17160 ft 381 kts 206°
2026-05-05 14:31 34.52285 -90.06831 17812 ft 387 kts 206°
2026-05-05 14:31 34.49741 -90.07956 18418 ft 392 kts 206°
2026-05-05 14:31 34.47159 -90.09090 18983 ft 397 kts 205°
2026-05-05 14:31 34.44410 -90.09825 19507 ft 414 kts 192°
2026-05-05 14:32 34.41519 -90.10104 20095 ft 419 kts 191°
2026-05-05 14:32 34.38607 -90.10421 20686 ft 422 kts 193°
2026-05-05 14:32 34.35674 -90.10796 21229 ft 425 kts 193°
2026-05-05 14:32 34.32721 -90.11197 21767 ft 429 kts 193°
2026-05-05 14:33 34.29742 -90.11608 22300 ft 433 kts 194°
2026-05-05 14:33 34.26737 -90.12021 22809 ft 437 kts 194°
2026-05-05 14:33 34.23704 -90.12435 23295 ft 441 kts 194°
2026-05-05 14:33 34.20645 -90.12849 23695 ft 445 kts 194°
2026-05-05 14:34 34.17547 -90.13267 24011 ft 450 kts 194°
2026-05-05 14:34 34.14420 -90.13687 24388 ft 454 kts 194°
2026-05-05 14:34 34.11277 -90.14109 24805 ft 456 kts 194°
2026-05-05 14:34 34.08112 -90.14511 25195 ft 460 kts 193°
2026-05-05 14:35 34.04898 -90.14755 25565 ft 466 kts 191°
2026-05-05 14:35 34.01641 -90.14892 25928 ft 470 kts 189°
2026-05-05 14:35 33.98360 -90.14988 26296 ft 473 kts 189°
2026-05-05 14:35 33.95055 -90.15077 26615 ft 476 kts 189°
2026-05-05 14:36 33.91733 -90.15177 26945 ft 479 kts 190°
2026-05-05 14:36 33.88389 -90.15292 27267 ft 482 kts 190°
2026-05-05 14:36 33.85030 -90.15420 27596 ft 484 kts 191°
2026-05-05 14:36 33.81653 -90.15556 27922 ft 486 kts 191°
2026-05-05 14:37 33.78264 -90.15698 28235 ft 489 kts 191°
2026-05-05 14:37 33.74853 -90.15842 28542 ft 491 kts 191°
2026-05-05 14:37 33.71425 -90.15988 28839 ft 494 kts 191°
2026-05-05 14:37 33.67979 -90.16134 29091 ft 496 kts 191°
2026-05-05 14:38 33.64569 -90.16278 29353 ft 499 kts 191°
2026-05-05 14:38 33.61089 -90.16424 29608 ft 502 kts 191°
2026-05-05 14:38 33.57594 -90.16569 29941 ft 502 kts 191°
2026-05-05 14:38 33.54105 -90.16712 30316 ft 501 kts 191°
2026-05-05 14:39 33.50625 -90.16853 30699 ft 499 kts 192°
2026-05-05 14:39 33.47153 -90.16995 31059 ft 499 kts 192°
2026-05-05 14:39 33.43684 -90.17138 31384 ft 499 kts 192°
2026-05-05 14:39 33.40217 -90.17283 31726 ft 499 kts 192°
2026-05-05 14:40 33.36748 -90.17427 32092 ft 498 kts 193°
2026-05-05 14:40 33.33284 -90.17571 32461 ft 498 kts 193°
2026-05-05 14:40 33.29823 -90.17714 32813 ft 497 kts 193°
2026-05-05 14:40 33.26366 -90.17858 33160 ft 497 kts 193°
2026-05-05 14:41 33.22911 -90.18001 33519 ft 497 kts 193°
2026-05-05 14:41 33.19456 -90.18144 33895 ft 496 kts 194°
2026-05-05 14:41 33.16012 -90.18285 34215 ft 495 kts 194°
2026-05-05 14:41 33.12569 -90.18428 34498 ft 495 kts 194°
2026-05-05 14:42 33.09126 -90.18570 34807 ft 494 kts 194°
2026-05-05 14:42 33.05696 -90.18710 35147 ft 493 kts 194°
2026-05-05 14:42 33.02291 -90.18849 35488 ft 491 kts 194°
2026-05-05 14:42 33.00028 -90.18942 35705 ft 491 kts 194°
2026-05-05 14:43 32.96618 -90.19082 36005 ft 490 kts 194°
2026-05-05 14:43 32.93208 -90.19223 36311 ft 490 kts 195°
2026-05-05 14:43 32.89812 -90.19363 36638 ft 488 kts 195°
2026-05-05 14:43 32.86418 -90.19502 36897 ft 487 kts 195°
2026-05-05 14:44 32.83029 -90.19642 37162 ft 488 kts 195°
2026-05-05 14:44 32.79637 -90.19782 37453 ft 487 kts 195°
2026-05-05 14:44 32.76259 -90.19920 37769 ft 486 kts 195°
2026-05-05 14:44 32.72877 -90.20058 37991 ft 486 kts 195°
2026-05-05 14:45 32.66079 -90.20343 37975 ft 490 kts 195°
2026-05-05 14:45 32.59293 -90.20615 37958 ft 485 kts 195°
2026-05-05 14:46 32.52565 -90.20884 37975 ft 483 kts 195°
2026-05-05 14:46 32.45843 -90.21160 37988 ft 483 kts 195°
2026-05-05 14:47 32.39165 -90.21435 37983 ft 484 kts 195°
2026-05-05 14:47 32.32433 -90.21709 37952 ft 484 kts 195°
2026-05-05 14:48 32.25710 -90.21981 37980 ft 484 kts 195°
2026-05-05 14:48 32.18978 -90.22253 37990 ft 484 kts 195°
2026-05-05 14:49 32.12240 -90.22527 37990 ft 485 kts 195°
2026-05-05 14:49 32.05485 -90.22800 37953 ft 486 kts 194°
2026-05-05 14:50 31.98727 -90.23071 37984 ft 486 kts 194°
2026-05-05 14:50 31.91970 -90.23342 37990 ft 486 kts 194°
2026-05-05 14:51 31.85208 -90.23613 37990 ft 486 kts 194°
2026-05-05 14:51 31.78440 -90.23886 37775 ft 489 kts 194°
2026-05-05 14:52 31.75019 -90.24027 37223 ft 491 kts 194°
2026-05-05 14:52 31.71621 -90.24160 36607 ft 487 kts 194°
2026-05-05 14:52 31.68239 -90.24292 35976 ft 486 kts 193°
2026-05-05 14:52 31.64855 -90.24426 35270 ft 487 kts 193°
2026-05-05 14:53 31.61465 -90.24563 34548 ft 488 kts 193°
2026-05-05 14:53 31.58065 -90.24701 33753 ft 490 kts 193°
2026-05-05 14:53 31.54647 -90.24840 32914 ft 492 kts 192°
2026-05-05 14:53 31.51221 -90.24977 32054 ft 493 kts 192°
2026-05-05 14:54 31.47787 -90.25113 31230 ft 494 kts 191°
2026-05-05 14:54 31.44340 -90.25250 30365 ft 497 kts 191°
2026-05-05 14:54 31.40871 -90.25389 29316 ft 501 kts 190°
2026-05-05 14:54 31.37387 -90.25526 28269 ft 502 kts 190°
2026-05-05 14:55 31.33894 -90.25663 27201 ft 503 kts 189°
2026-05-05 14:55 31.30392 -90.25799 26103 ft 504 kts 188°
2026-05-05 14:55 31.26879 -90.25756 25242 ft 504 kts 184°
2026-05-05 14:55 31.23397 -90.25502 24438 ft 499 kts 182°
2026-05-05 14:56 31.20001 -90.25178 23659 ft 493 kts 181°
2026-05-05 14:56 31.16593 -90.24849 22731 ft 488 kts 181°
2026-05-05 14:56 31.13239 -90.24550 21889 ft 480 kts 182°
2026-05-05 14:56 31.09931 -90.24282 21085 ft 473 kts 182°
2026-05-05 14:57 31.06663 -90.24037 20301 ft 467 kts 182°
2026-05-05 14:57 31.03441 -90.23804 19532 ft 461 kts 182°
2026-05-05 14:57 31.00257 -90.23577 18739 ft 457 kts 182°
2026-05-05 14:57 30.97100 -90.23351 17900 ft 453 kts 182°
2026-05-05 14:58 30.93962 -90.23124 17045 ft 448 kts 182°
2026-05-05 14:58 30.90868 -90.22898 16267 ft 442 kts 181°
2026-05-05 14:58 30.87817 -90.22674 15499 ft 436 kts 181°
2026-05-05 14:58 30.84805 -90.22453 14736 ft 431 kts 181°
2026-05-05 14:59 30.81838 -90.22236 14035 ft 424 kts 180°
2026-05-05 14:59 30.78908 -90.22022 13353 ft 417 kts 180°
2026-05-05 14:59 30.76027 -90.21812 12472 ft 414 kts 180°
2026-05-05 14:59 30.73217 -90.21606 12032 ft 392 kts 180°
2026-05-05 15:00 30.70564 -90.21409 11776 ft 374 kts 180°
2026-05-05 15:00 30.68867 -90.21284 11665 ft 363 kts 180°
2026-05-05 15:00 30.65587 -90.21047 11444 ft 344 kts 180°
2026-05-05 15:00 30.63237 -90.20876 11306 ft 332 kts 180°
2026-05-05 15:01 30.60971 -90.20711 11165 ft 320 kts 180°
2026-05-05 15:01 30.58787 -90.20551 11028 ft 309 kts 180°
2026-05-05 15:01 30.56678 -90.20668 10667 ft 301 kts 199°
2026-05-05 15:01 30.54821 -90.21678 10341 ft 292 kts 216°
2026-05-05 15:02 30.53148 -90.22992 10041 ft 289 kts 218°
2026-05-05 15:02 30.51534 -90.24321 9879 ft 279 kts 218°
2026-05-05 15:02 30.49997 -90.25598 9689 ft 263 kts 218°
2026-05-05 15:02 30.48603 -90.26904 9451 ft 255 kts 224°
2026-05-05 15:03 30.47308 -90.28284 9208 ft 252 kts 225°
2026-05-05 15:03 30.46034 -90.29666 8971 ft 249 kts 225°
2026-05-05 15:03 30.44783 -90.31036 8763 ft 245 kts 225°
2026-05-05 15:03 30.43561 -90.32380 8625 ft 239 kts 225°
2026-05-05 15:04 30.42378 -90.33688 8526 ft 231 kts 225°
2026-05-05 15:04 30.41236 -90.34953 8458 ft 225 kts 225°
2026-05-05 15:04 30.40109 -90.36200 8413 ft 223 kts 225°
2026-05-05 15:04 30.39004 -90.37426 8362 ft 223 kts 225°
2026-05-05 15:05 30.36583 -90.39683 8320 ft 223 kts 220°
2026-05-05 15:05 30.35356 -90.40774 8316 ft 223 kts 220°
2026-05-05 15:05 30.34112 -90.41879 8282 ft 229 kts 219°
2026-05-05 15:06 30.32823 -90.43028 8023 ft 236 kts 219°
2026-05-05 15:06 30.31512 -90.44201 7796 ft 244 kts 219°
2026-05-05 15:06 30.30111 -90.45467 7586 ft 264 kts 219°
2026-05-05 15:06 30.28646 -90.46802 7350 ft 271 kts 219°
2026-05-05 15:07 30.27160 -90.48164 7120 ft 274 kts 219°
2026-05-05 15:07 30.25685 -90.49524 6952 ft 266 kts 219°
2026-05-05 15:07 30.24260 -90.50844 6566 ft 262 kts 219°
2026-05-05 15:07 30.22649 -90.51812 6162 ft 266 kts 191°
2026-05-05 15:08 30.20811 -90.51632 5931 ft 266 kts 170°
2026-05-05 15:08 30.18997 -90.51245 5569 ft 265 kts 176°
2026-05-05 15:08 30.17172 -90.51098 5287 ft 262 kts 181°
2026-05-05 15:08 30.15358 -90.51150 5047 ft 259 kts 186°
2026-05-05 15:09 30.13573 -90.51338 4851 ft 257 kts 188°
2026-05-05 15:09 30.11808 -90.51594 4642 ft 253 kts 189°
2026-05-05 15:09 30.10088 -90.51871 4445 ft 245 kts 190°
2026-05-05 15:09 30.08446 -90.52143 4274 ft 232 kts 190°
2026-05-05 15:10 30.06859 -90.52193 3871 ft 232 kts 167°
2026-05-05 15:10 30.05583 -90.51152 3683 ft 227 kts 129°
2026-05-05 15:10 30.04912 -90.49529 3429 ft 221 kts 116°
2026-05-05 15:10 30.04423 -90.47880 3172 ft 213 kts 112°
2026-05-05 15:11 30.04018 -90.46266 2894 ft 206 kts 111°
2026-05-05 15:11 30.03646 -90.44722 2682 ft 195 kts 110°
2026-05-05 15:11 30.03290 -90.43241 2435 ft 189 kts 111°
2026-05-05 15:11 30.02939 -90.41786 2209 ft 187 kts 111°
2026-05-05 15:12 30.02595 -90.40360 1984 ft 183 kts 111°
2026-05-05 15:12 30.02253 -90.38945 1760 ft 183 kts 111°
2026-05-05 15:12 30.01911 -90.37524 1526 ft 185 kts 110°
2026-05-05 15:12 30.01567 -90.36093 1284 ft 182 kts 111°
2026-05-05 15:13 30.01242 -90.34737 1081 ft 169 kts 111°
2026-05-05 15:13 30.00936 -90.33468 884 ft 159 kts 110°
2026-05-05 15:13 30.00660 -90.32318 727 ft 141 kts 112°
2026-05-05 15:13 30.00416 -90.31301 539 ft 128 kts 113°
2026-05-05 15:14 30.00181 -90.30332 404 ft 127 kts 114°
2026-05-05 15:14 29.99945 -90.29351 258 ft 128 kts 109°
2026-05-05 15:14 29.99715 -90.28369 68 ft 125 kts 111°
2026-05-05 15:14 29.99489 -90.27455 5 ft 108 kts 106°
2026-05-05 15:15 29.99318 -90.26738 17 ft 36 kts 104°
2026-05-05 15:15 29.99274 -90.26558 14 ft 15 kts 107°
2026-05-05 15:15 29.99230 -90.26504 13 ft 8 kts 167°
2026-05-05 15:15 29.99173 -90.26509 12 ft 9 kts 181°
2026-05-05 15:16 29.99128 -90.26470 12 ft 9 kts 106°
2026-05-05 15:16 29.99111 -90.26400 13 ft 9 kts 106°
2026-05-05 15:16 29.99092 -90.26324 11 ft 10 kts 106°
2026-05-05 15:16 29.99045 -90.26273 11 ft 10 kts 181°
2026-05-05 15:17 29.98978 -90.26293 11 ft 10 kts 196°
2026-05-05 15:17 29.98915 -90.26313 11 ft 8 kts 195°
2026-05-05 15:17 29.98881 -90.26336 10 ft 5 kts 250°
2026-05-05 15:17 29.98888 -90.26379 10 ft 5 kts 285°
2026-05-05 15:18 29.98892 -90.26398 9 ft 3 kts 285°
2026-05-05 15:18 29.98893 -90.26400 9 ft 0 kts 285°